Dewpoint
64 62 58 47 38 36 34 34 37 34 34 40 43 45 44 47 44 40 61 63 64 67 68 68 69 69 69 69 69 68 67 66 66 69 69 69 69 68 68 68 68 67 66 65 64 63 63 63 62
63 57 50 41 34 33 33 34 34 34 45 50 50 49 47 47 57 58 61 65 66 67 68 68 70 69 69 69 68 67 66 66 64 68 69 69 68 68 68 67 67 67 66 66 65 63 63 62 62
61 54 47 41 31 33 33 31 33 40 50 50 49 52 52 53 57 58 62 66 67 67 68 69 69 69 68 67 66 67 67 67 67 67 67 67 67 67 67 67 67 67 67 65 63 63 62 62 61
56 54 39 36 30 29 32 30 33 47 48 52 51 49 54 58 57 60 64 67 66 67 68 69 69 68 67 65 65 66 65 65 67 66 67 67 67 67 67 66 67 67 66 64 63 63 62 61 60
52 45 35 32 30 28 27 28 41 45 47 50 51 50 54 60 62 64 65 66 66 67 68 68 69 67 66 66 66 65 66 65 67 67 68 68 67 66 65 65 67 66 65 64 63 62 61 61 60
50 40 30 28 29 27 27 31 37 46 49 51 50 52 54 62 63 64 65 66 67 67 68 67 67 66 65 66 65 65 65 65 66 68 68 67 66 66 65 65 66 66 65 63 62 61 60 60 60
46 36 27 28 27 26 25 39 40 47 49 49 52 51 57 60 62 64 64 66 66 66 66 65 65 64 64 65 65 66 66 66 67 67 67 66 66 65 64 65 66 65 64 63 61 60 60 60 60
44 32 26 27 25 23 27 43 48 48 48 53 53 49 53 60 63 64 64 65 65 65 65 65 65 65 63 64 65 64 66 67 67 67 66 65 65 65 65 64 64 65 65 63 61 60 60 60 60
35 29 24 26 23 23 33 41 50 52 51 51 53 54 57 62 63 62 62 62 64 64 65 65 65 65 64 65 66 66 66 65 65 65 65 65 64 64 64 63 62 62 64 63 61 60 61 61 61
41 31 25 26 23 22 33 42 49 49 50 51 54 58 61 61 61 59 60 59 60 62 63 64 64 64 64 65 65 64 64 64 64 64 64 64 63 63 63 62 62 62 63 63 61 60 59 58 57
41 34 26 23 22 22 31 45 50 48 47 50 52 57 59 59 58 58 59 60 59 61 63 63 63 63 63 63 63 63 63 63 62 63 63 63 62 62 60 57 55 56 60 61 58 55 56 56 57
41 38 25 22 24 23 32 48 47 46 46 49 54 57 58 57 57 56 58 59 60 61 62 62 62 62 62 62 62 62 61 61 61 61 61 61 60 58 56 54 52 50 53 54 54 54 55 56 56
38 37 27 26 24 22 44 43 44 46 51 55 56 57 57 56 55 57 59 60 61 61 61 61 61 60 61 61 61 60 60 59 59 59 58 58 57 55 54 54 52 48 46 50 51 53 54 54 55
37 37 27 25 22 34 36 45 46 49 56 56 55 56 56 55 55 57 58 59 60 61 61 61 60 60 60 60 60 60 59 59 58 57 56 55 55 55 54 54 52 48 45 45 49 52 52 52 54
33 32 25 24 22 35 43 44 45 52 56 54 54 55 55 55 55 56 58 58 60 60 60 60 59 59 59 59 60 60 59 58 57 57 56 55 55 55 54 52 50 48 46 45 49 50 50 50 52
31 26 22 23 22 33 33 31 48 54 53 52 53 54 55 55 55 57 58 58 59 59 59 59 59 58 58 59 59 59 59 58 57 57 56 55 56 55 53 51 49 48 47 46 49 49 48 48 51
33 25 20 21 23 35 28 30 48 52 53 51 52 54 54 55 56 57 58 58 58 59 58 58 58 58 58 58 59 58 58 58 57 57 57 56 56 54 52 51 50 49 48 46 46 47 46 46 48
32 23 20 19 22 31 34 42 48 51 52 51 51 53 54 55 56 57 58 58 58 58 58 58 58 58 58 58 58 57 57 57 56 56 57 56 56 54 53 53 51 49 49 48 47 45 45 45 45
27 22 18 22 26 33 36 44 46 48 51 50 51 52 54 54 56 58 58 58 57 58 57 57 58 59 59 58 57 57 56 56 56 56 56 55 55 55 54 54 52 50 49 49 47 45 43 44 45
22 19 21 23 27 35 42 42 45 47 49 50 51 51 53 54 56 57 58 58 57 57 57 57 57 59 59 58 57 57 57 56 56 56 56 56 56 56 55 54 52 51 50 50 47 46 44 43 45
18 18 21 21 32 36 36 37 43 46 49 50 52 52 53 54 55 56 57 57 57 57 57 57 57 58 59 59 58 57 57 56 55 55 55 55 56 56 56 55 53 52 51 50 49 46 45 43 44
17 21 22 23 24 24 21 18 32 45 47 50 51 52 52 53 54 55 56 56 57 57 57 57 57 58 59 60 58 57 55 54 55 55 55 55 55 56 56 55 54 53 52 51 50 48 46 45 43
17 23 20 18 19 23 17 25 30 43 44 47 50 52 52 52 54 55 56 57 58 58 57 57 57 57 59 59 58 57 55 54 55 54 54 55 55 55 56 55 54 53 52 52 51 49 47 46 44
23 19 20 22 20 15 17 11 24 38 41 45 48 50 51 51 52 55 57 58 58 59 58 57 57 57 57 58 58 57 56 55 53 53 53 54 55 55 55 55 54 54 53 52 52 51 49 47 46
21 17 16 16 14 13 16 14 10 13 33 42 45 48 50 52 51 52 54 57 58 58 58 57 57 56 57 57 57 58 57 56 54 53 53 53 54 54 55 55 54 54 54 53 52 51 51 49 47
18 18 17 17 15 12 13 11 12 23 31 35 41 49 50 52 52 51 51 55 56 57 58 57 57 56 57 57 57 57 57 56 55 54 54 54 54 54 55 55 54 54 54 53 52 52 51 50 50
17 16 19 11 10 11 10 10 12 29 30 31 35 38 38 38 39 41 45 51 54 56 57 58 57 57 58 58 57 58 57 57 56 56 55 55 54 55 55 55 55 54 54 53 53 52 51 50 49
17 17 14 14 9 9 9 8 9 16 25 28 30 30 29 30 31 33 34 36 39 46 55 57 57 57 57 58 58 58 58 58 57 57 56 56 55 55 54 55 55 55 54 54 53 52 51 50 49
15 14 16 15 15 9 7 8 13 12 23 27 25 25 25 26 27 28 29 31 33 36 41 49 54 57 57 58 58 59 59 59 58 58 57 56 56 55 55 55 55 54 54 54 53 53 52 50 50
22 16 14 12 11 14 11 9 25 25 25 25 23 23 23 23 24 26 26 27 29 30 32 35 38 42 43 46 54 58 58 59 59 58 58 57 56 56 56 55 55 54 54 54 53 52 52 51 50
Wind_Speed
8 9 6 3 7 1 8 7 2 5 4 3 6 4 11 3 5 3 1 3 15 16 15 15 14 14 14 15 15 15 17 16 19 19 20 20 21 23 22 22 23 24 26 25 24 23 24 24 24
5 8 3 4 6 13 11 5 12 6 5 10 7 6 4 4 2 6 10 10 19 17 15 14 14 13 16 17 17 17 17 15 19 18 19 19 21 21 21 22 24 24 26 24 22 22 23 23 23
7 6 5 9 7 21 15 10 11 3 12 4 5 5 3 4 5 13 10 16 18 16 14 14 15 16 18 17 17 19 21 21 22 19 18 18 18 22 21 22 24 24 24 23 23 22 22 22 23
8 3 2 6 22 7 12 12 10 12 1 2 5 9 3 2 10 6 16 17 18 16 14 15 16 18 18 18 19 21 23 24 25 22 24 18 19 23 22 21 21 23 23 23 24 23 22 22 23
5 4 8 5 13 7 6 5 15 15 7 7 4 6 4 1 6 14 16 16 19 15 14 16 18 19 20 20 20 20 22 20 25 24 23 23 20 21 20 20 18 23 22 22 22 22 21 22 23
7 4 15 17 14 7 6 6 12 9 7 9 7 7 4 7 16 16 15 15 14 18 14 16 20 23 24 23 23 21 19 16 17 21 23 25 21 21 19 20 18 21 22 22 21 21 21 21 22
11 7 13 13 15 14 10 10 11 12 9 9 11 6 6 11 14 15 15 15 12 15 16 14 18 21 22 22 21 18 19 16 16 18 22 23 22 20 18 19 18 20 21 21 20 20 22 20 21
7 5 9 16 23 15 11 9 6 9 6 6 1 8 9 13 17 16 15 14 15 15 15 15 18 17 17 18 12 19 16 18 18 19 20 21 21 19 18 18 17 18 19 19 20 20 20 19 19
5 7 19 17 26 14 14 8 2 3 12 3 2 5 12 22 20 17 16 16 14 14 14 15 15 14 15 13 15 17 20 19 20 19 19 17 15 16 16 17 17 15 16 18 20 19 19 17 17
11 13 15 10 15 17 18 13 15 9 11 3 6 12 25 21 20 21 20 18 16 15 15 16 16 16 17 13 15 15 14 12 12 13 14 13 14 13 15 16 16 15 15 18 19 17 15 13 11
12 18 7 10 14 19 19 13 5 17 13 13 22 23 25 23 21 21 19 16 18 17 17 16 17 16 16 14 14 12 11 11 11 12 13 12 12 12 11 11 9 10 13 13 12 11 10 12 11
22 4 8 9 11 14 19 15 10 13 6 11 21 24 23 25 22 22 20 17 17 18 17 16 16 16 15 13 13 13 12 11 10 10 12 11 10 10 9 9 9 9 7 12 10 10 10 11 11
16 12 6 2 10 10 18 14 11 9 4 20 25 25 23 21 22 19 17 15 15 19 17 16 16 16 15 14 12 12 11 10 11 10 10 10 10 9 8 8 8 8 8 9 9 10 10 11 10
14 16 5 3 12 10 14 6 8 2 15 23 28 24 21 21 22 20 19 18 17 19 19 16 16 16 15 14 14 12 11 11 10 9 9 9 9 9 7 7 7 8 8 7 9 10 10 9 9
22 19 5 3 11 10 14 7 8 11 19 25 23 23 20 20 20 20 19 18 18 18 18 17 16 15 15 15 15 12 11 10 10 10 10 10 8 7 7 7 6 7 7 10 11 10 10 10 9
14 17 15 4 9 5 7 14 4 16 25 23 23 22 20 19 19 16 17 18 17 18 19 16 15 16 15 15 13 10 10 10 9 9 8 10 8 7 7 8 7 7 8 10 11 11 9 9 8
10 31 17 8 3 9 5 7 10 15 21 24 23 23 21 19 16 15 18 16 17 19 18 17 17 17 15 14 12 9 9 9 8 9 8 8 8 8 8 8 8 8 8 9 10 8 7 9 8
20 26 17 19 10 6 8 5 15 17 20 25 24 22 21 21 19 17 18 17 15 17 17 16 16 16 14 12 10 6 5 5 6 7 7 8 9 9 9 8 9 8 8 8 7 8 6 6 8
37 28 18 7 3 11 3 13 17 16 15 16 18 21 19 19 15 16 16 17 16 16 17 17 17 14 14 11 11 7 7 6 6 7 9 10 10 11 10 8 9 8 9 9 9 7 8 5 7
6 29 15 7 5 9 10 8 9 15 20 20 21 21 20 19 18 17 17 18 20 20 18 16 16 15 14 12 8 5 8 6 6 8 9 8 10 11 10 10 10 10 9 9 10 9 6 3 9
9 29 13 20 9 11 12 4 4 5 10 15 13 15 14 20 21 19 19 21 20 19 20 20 19 17 15 14 10 5 7 4 5 7 7 9 11 11 11 11 11 11 9 11 11 10 9 6 9
16 13 15 17 14 15 3 10 2 4 11 14 16 15 15 17 18 19 20 22 22 23 22 21 20 19 17 16 15 14 13 10 9 10 10 12 12 13 12 12 11 11 9 10 11 10 9 7 10
8 14 14 8 12 11 2 5 5 6 11 17 18 16 17 19 18 23 24 24 23 21 22 22 21 21 19 19 19 19 15 11 9 10 11 11 11 12 13 13 12 12 11 10 11 11 11 8 7
17 16 10 7 5 13 1 3 10 14 15 14 11 16 18 18 19 20 20 19 21 20 20 21 20 21 20 22 20 20 20 16 11 10 12 10 10 11 12 13 13 13 12 12 13 13 12 13 10
10 23 9 4 3 8 4 2 1 2 2 7 23 14 13 18 19 17 20 19 18 19 19 20 22 20 20 21 20 20 20 21 19 18 16 14 12 10 15 15 15 15 15 14 12 13 13 14 14
16 10 13 11 13 12 1 9 7 1 4 4 6 11 8 8 11 14 13 13 16 17 19 20 21 20 18 20 21 18 19 16 15 16 14 14 15 17 17 17 16 17 16 15 14 12 13 13 14
10 11 13 10 3 3 3 4 5 6 4 6 8 9 7 5 6 6 5 4 12 18 20 20 21 20 21 22 21 20 18 17 17 17 18 16 15 13 14 16 18 17 16 16 15 15 16 14 14
5 11 12 6 12 8 6 9 14 13 12 5 4 3 5 5 6 6 6 6 6 5 8 14 16 20 20 20 17 17 19 20 19 16 18 17 16 18 17 18 18 17 18 18 17 16 15 15 14
6 6 4 8 5 13 9 13 8 17 14 13 5 2 3 5 6 6 7 8 8 9 10 5 1 10 12 13 15 16 15 17 18 19 19 20 17 18 18 19 20 20 20 19 19 19 17 18 16
2 5 5 14 11 3 4 8 1 5 6 7 6 3 3 5 6 7 9 9 10 11 11 11 10 9 8 6 4 13 15 13 14 16 18 17 19 17 18 17 17 18 20 19 21 21 19 22 21
Wind_Direction
250 123 102 95 164 137 210 213 215 186 197 181 126 157 179 110 164 185 137 180 144 147 151 151 147 145 136 133 130 129 124 132 119 108 110 109 110 111 111 109 104 103 100 99 97 95 96 95 93
182 116 73 125 173 189 213 204 210 197 148 129 101 111 112 158 94 122 138 149 144 145 146 147 139 134 132 125 127 125 118 109 109 110 110 113 114 114 111 110 109 106 102 98 97 97 98 97 96
149 105 166 164 180 204 203 199 206 157 142 151 118 57 102 132 117 148 132 143 139 139 140 142 132 128 129 128 127 119 113 107 103 104 102 103 116 109 104 102 104 105 101 103 100 98 100 100 100
158 150 64 201 202 210 196 189 181 148 167 184 132 116 77 302 149 158 142 143 136 136 139 135 126 128 128 129 128 122 116 113 105 96 91 86 93 99 96 96 100 105 102 104 103 101 101 101 101
119 137 178 187 198 194 203 186 173 175 165 161 155 135 85 71 127 139 140 140 135 134 137 136 128 124 117 113 110 109 109 107 109 112 112 112 104 101 97 96 100 107 107 103 100 102 102 102 101
147 159 188 200 189 188 194 183 170 167 144 147 123 109 122 139 141 140 136 131 130 134 129 134 131 121 119 113 109 103 100 105 105 114 115 110 106 104 101 98 107 111 107 100 102 102 102 102 101
175 176 190 182 173 186 182 150 181 161 151 179 155 99 118 149 133 135 133 125 118 118 123 127 132 121 113 104 111 111 118 116 116 107 101 99 102 99 105 95 102 113 107 104 102 102 102 102 100
129 166 159 182 178 191 164 139 151 158 154 125 139 153 166 161 144 135 125 121 120 114 116 120 125 122 122 119 131 131 130 111 101 93 97 100 99 96 92 98 96 103 108 107 104 101 103 104 100
129 187 197 178 178 168 159 140 108 91 130 104 72 147 142 142 135 136 124 128 119 117 119 120 121 121 123 122 127 117 109 105 101 98 101 98 99 103 102 100 94 94 110 109 104 104 103 98 89
167 202 192 188 167 172 167 152 144 149 142 99 103 106 132 138 144 149 143 143 143 137 130 125 121 119 124 124 116 106 105 105 106 109 107 103 105 105 103 94 88 88 108 107 106 105 100 95 99
180 201 176 176 174 161 161 149 145 142 184 189 168 149 145 148 153 152 149 149 149 139 126 129 123 122 125 123 119 117 114 114 110 113 112 112 108 106 103 99 89 95 103 112 107 104 100 103 102
177 218 171 171 177 158 168 142 152 160 175 174 159 153 149 154 158 158 152 150 142 131 133 132 130 125 126 123 123 123 123 125 120 117 117 117 112 111 107 102 101 98 108 114 114 108 108 101 98
170 168 185 143 163 169 143 171 175 174 97 136 143 151 152 156 157 154 147 138 139 139 143 142 135 135 131 127 128 127 127 125 125 122 121 123 121 116 114 101 105 107 114 125 123 121 114 107 97
140 158 161 103 150 158 158 151 142 154 134 137 148 152 155 159 161 153 148 151 156 149 152 147 140 139 138 137 137 136 132 134 134 132 130 127 129 127 117 110 108 112 118 127 134 126 119 108 111
137 154 131 127 161 165 135 139 179 146 145 146 154 153 155 162 167 166 158 160 160 158 155 153 147 146 145 148 142 139 137 142 143 137 141 138 132 131 127 119 115 118 120 117 117 113 110 109 104
142 146 159 183 162 152 180 193 168 158 152 159 161 156 157 162 167 162 160 164 163 158 161 155 152 156 158 149 148 148 146 148 145 147 152 147 141 147 136 135 129 134 127 126 126 128 119 113 114
205 158 164 154 196 147 175 171 168 170 161 163 167 163 161 157 161 160 162 169 170 164 162 160 158 161 158 151 151 155 149 156 157 157 160 169 168 157 145 142 138 143 136 130 135 133 133 135 131
154 152 161 161 183 127 140 124 161 171 171 173 171 167 164 168 169 163 162 168 172 170 167 164 164 163 154 150 145 146 150 162 164 173 178 168 163 154 148 142 145 147 138 141 141 134 113 140 134
156 155 147 97 108 119 136 149 169 173 173 173 171 171 167 172 166 161 163 170 172 174 169 168 169 166 153 154 159 169 179 183 186 192 188 179 166 164 160 157 157 162 164 164 152 129 139 136 154
164 146 128 92 101 107 111 116 174 183 183 179 172 177 174 164 164 163 170 174 180 181 179 177 180 173 173 172 170 157 177 193 194 186 186 187 178 175 173 173 173 170 156 160 167 160 149 121 176
154 161 149 142 103 64 126 97 156 199 195 178 182 165 177 172 172 171 179 182 182 187 188 188 187 184 183 181 165 120 135 108 155 180 194 202 195 190 187 186 177 176 176 177 182 179 175 161 195
152 133 123 131 139 155 9 197 222 203 171 175 172 172 183 189 187 184 189 191 189 193 196 192 190 186 188 179 183 187 187 182 192 190 197 197 202 200 197 193 188 186 186 188 190 187 188 169 186
141 138 135 117 114 129 96 117 179 168 196 184 183 185 185 197 193 196 196 197 195 196 194 194 196 186 188 190 190 193 195 210 179 184 196 197 201 206 202 200 196 198 198 203 193 189 198 196 191
137 124 95 71 100 185 109 134 209 191 196 205 202 201 192 194 197 197 200 195 197 197 194 192 194 191 190 188 191 193 196 202 193 197 200 208 205 209 212 208 208 209 208 205 206 202 200 205 207
142 139 138 142 218 192 349 225 292 223 239 221 204 196 189 198 198 198 194 194 197 198 196 189 186 195 192 195 196 197 198 201 208 207 208 209 210 211 217 210 210 212 214 213 209 203 205 208 213
158 163 152 157 178 191 345 226 185 177 72 51 81 181 166 193 201 201 199 199 194 195 195 198 198 198 192 196 202 200 199 199 201 204 203 210 207 214 213 208 210 215 214 213 209 214 212 211 219
171 183 147 108 52 147 215 278 260 159 102 72 82 92 87 57 50 49 29 208 207 202 200 199 195 202 199 201 201 200 198 206 209 207 210 211 212 213 210 209 210 215 215 217 213 218 224 212 219
167 149 152 137 155 182 222 220 213 194 192 165 124 82 30 20 37 27 24 10 3 353 246 211 211 205 203 201 202 206 207 208 212 213 215 214 213 206 204 206 210 214 217 215 212 221 226 220 223
139 182 91 124 156 189 180 228 204 203 183 180 175 95 40 20 28 22 21 27 22 27 33 43 273 232 226 216 214 214 216 215 213 212 216 213 209 211 208 211 210 212 216 216 215 221 223 223 227
340 174 153 191 200 169 209 234 36 148 144 157 159 126 71 56 41 38 32 27 34 30 32 38 34 38 24 12 319 237 228 219 220 223 221 214 211 211 219 219 218 218 218 217 216 221 221 225 226